Location: Azul
(36.7830°S, 59.8500°W)
Time: 17:28:55
(UTC-03:00)

AO-109 - Pass Details

Date: 31 October 2021
Orbit: 474 x 522 km, 60.7° (Epoch: 06 December)

Event Time Altitude Azimuth Distance (km) Brightness Sun altitude
Rises 22:09:13 0° 293° (WNW) 2,607 ? -27.3°
Reaches altitude 10° 22:11:43 10° 277° (W) 1,739 ? -27.6°
Maximum altitude 22:14:50 22° 224° (SW) 1,164 ? -28.0°
Drops below altitude 10° 22:18:01 10° 171° (S) 1,775 ? -28.4°
Sets 22:20:37 0° 156° (SSE) 2,677 ? -28.8°
